This demonstration page uses our WeatherBlox Daily Observations layout. Learn more.

Left ArrowRight Arrow

Hourly Observations for May 10, 2020

Temp ( °F °C ) Dew Point ( °F °C ) Humidity (%) Winds ( mph kmh ) Pressure ( in mb ) Visibility ( mi km ) Precip ( " mm )
12:53 am 00:53 Clear 68 20 40 4.4 36 36 ESE 14 22 29.98 1015 10 16 0.00 0.00
1:53 am 01:53 Clear 67 19.4 40 4.4 37 37 E 12 19 29.98 1015 10 16 0.00 0.00
2:53 am 02:53 Clear 64 17.8 41 5 43 43 E 10 17 29.98 1015 10 16 0.00 0.00
3:53 am 03:53 Clear 62 16.7 42 5.6 48 48 E 10 17 29.98 1015 10 16 0.00 0.00
4:53 am 04:53 Clear 61 16.1 44 6.7 54 54 E 13 20 29.98 1015 10 16 0.00 0.00
5:53 am 05:53 Clear 61 16.1 45 7.2 56 56 E 12 19 30.00 1016 10 16 0.00 0.00
6:53 am 06:53 Clear 60 15.6 48 8.9 65 65 E 14 22 30.00 1016 10 16 0.00 0.00
7:53 am 07:53 Sunny 61 16.1 51 10.6 70 70 ESE 13 20 30.05 1018 10 16 0.00 0.00
8:32 am 08:32 Mostly Cloudy 62 16.7 52 11.1 70 70 ESE 14 22 30.10 1019 10 16 0.00 0.00
8:53 am 08:53 Cloudy 62 16.7 53 11.7 73 73 ESE 15 24 30.09 1019 10 16 0.00 0.00
9:14 am 09:14 Mostly Cloudy 63 17.2 53 11.7 70 70 ESE 12 19 30.11 1020 10 16 0.00 0.00
9:53 am 09:53 Sunny 65 18.3 54 12.2 68 68 ESE 16 26 30.08 1019 10 16 0.00 0.00
10:53 am 10:53 Mostly Sunny 69 20.6 55 12.8 61 61 SE 16 26 30.09 1019 10 16 0.00 0.00
11:53 am 11:53 Sunny 73 22.8 54 12.2 51 51 SSE 15 24 30.08 1019 10 16 0.00 0.00
12:53 pm 12:53 Mostly Cloudy 73 22.8 54 12.2 51 51 SE 15 24 30.08 1019 10 16 0.00 0.00
1:53 pm 13:53 Partly Cloudy 76 24.4 54 12.2 47 47 SSE 17 28 30.03 1017 10 16 0.00 0.00
2:53 pm 14:53 Sunny 78 25.6 52 11.1 40 40 SE 21 33 30.00 1016 10 16 0.00 0.00
3:53 pm 15:53 Sunny 81 27.2 52 11.1 37 37 SE 22 35 29.98 1015 10 16 0.00 0.00
4:53 pm 16:53 Sunny 80 26.7 51 10.6 37 37 SSE 22 35 29.96 1015 10 16 0.00 0.00
5:53 pm 17:53 Sunny 80 26.7 52 11.1 38 38 SE 13 20 29.97 1015 10 16 0.00 0.00
6:53 pm 18:53 Sunny 79 26.1 52 11.1 39 39 SE 14 22 29.96 1015 10 16 0.00 0.00
7:53 pm 19:53 Sunny 78 25.6 52 11.1 40 40 SE 9 15 29.96 1015 10 16 0.00 0.00
8:53 pm 20:53 Mostly Clear 77 25 51 10.6 40 40 S 12 19 29.97 1015 10 16 0.00 0.00
9:53 pm 21:53 Clear 74 23.3 52 11.1 46 46 SE 14 22 29.96 1015 10 16 0.00 0.00
10:53 pm 22:53 Clear 73 22.8 50 10 44 44 SSE 13 20 29.97 1015 10 16 0.00 0.00
11:53 pm 23:53 Clear 71 21.7 50 10 47 47 SSE 8 13 29.97 1015 10 16 0.00 0.00

Powered by AerisWeather